Weather reports worldwide

Advertisment
Bonifati, Italy (16337): temperature & dewpoint: 09.07.2018 21:00:00 - 15.07.2018 21:00:00 (CEST)Bonifati, Italy (16337): wind speed: 09.07.2018 21:00:00 - 15.07.2018 21:00:00 (CEST)Bonifati, Italy (16337): wind direction: 09.07.2018 21:00:00 - 15.07.2018 21:00:00 (CEST)Bonifati, Italy (16337): reduced air pressure: 09.07.2018 21:00:00 - 15.07.2018 21:00:00 (CEST)Bonifati, Italy (16337): visibility: 09.07.2018 21:00:00 - 15.07.2018 21:00:00 (CEST)
Date & Time tt [°C] td [°C] ff [km/h] ff [kn] dd ppp [hPa] vv [km]
15.07.2018 21:00:00 - - - - - - -
15.07.2018 20:00:00 24,8 23,0 8 4 SW 1012,9 15
15.07.2018 19:00:00 - - - - - - -
15.07.2018 18:00:00 - - - - - - -
15.07.2018 17:00:00 27,0 23,2 8 4 WNW 1012,7 15
15.07.2018 16:00:00 - - - - - - -
15.07.2018 15:00:00 - - - - - - -
15.07.2018 14:00:00 27,8 23,6 8 4 SSW 1013,2 15
15.07.2018 13:00:00 - - - - - - -
15.07.2018 12:00:00 - - - - - - -
15.07.2018 11:00:00 26,0 22,9 13 7 SW 1013,1 20
15.07.2018 10:00:00 - - - - - - -
15.07.2018 09:00:00 - - - - - - -
15.07.2018 08:00:00 24,4 20,3 8 4 S 1013,1 20
15.07.2018 07:00:00 - - - - - - -
15.07.2018 06:00:00 - - - - - - -
15.07.2018 05:00:00 - - - - - - -
15.07.2018 04:00:00 - - - - - - -
15.07.2018 03:00:00 - - - - - - -
15.07.2018 02:00:00 - - - - - - -
15.07.2018 01:00:00 - - - - - - -
15.07.2018 00:00:00 - - - - - - -
14.07.2018 23:00:00 - - - - - - -
14.07.2018 22:00:00 - - - - - - -
14.07.2018 21:00:00 - - - - - - -
14.07.2018 20:00:00 25,4 22,3 0 0 N 1013,8 20
14.07.2018 19:00:00 - - - - - - -
14.07.2018 18:00:00 - - - - - - -
14.07.2018 17:00:00 27,0 21,1 8 4 WSW 1014,7 20
14.07.2018 16:00:00 - - - - - - -
14.07.2018 15:00:00 - - - - - - -
14.07.2018 14:00:00 28,0 23,2 9 5 SSW 1015,1 20
14.07.2018 13:00:00 - - - - - - -
14.07.2018 12:00:00 - - - - - - -
14.07.2018 11:00:00 26,0 23,1 11 6 S 1016,0 20
14.07.2018 10:00:00 - - - - - - -
14.07.2018 09:00:00 - - - - - - -
14.07.2018 08:00:00 23,0 19,4 4 2 WSW 1015,7 20
14.07.2018 07:00:00 - - - - - - -
14.07.2018 06:00:00 - - - - - - -
14.07.2018 05:00:00 - - - - - - -
14.07.2018 04:00:00 - - - - - - -
14.07.2018 03:00:00 - - - - - - -
14.07.2018 02:00:00 - - - - - - -
14.07.2018 01:00:00 - - - - - - -
14.07.2018 00:00:00 - - - - - - -
13.07.2018 23:00:00 - - - - - - -
13.07.2018 22:00:00 - - - - - - -
13.07.2018 21:00:00 - - - - - - -
13.07.2018 20:00:00 24,2 21,5 9 5 NW 1015,5 20
13.07.2018 19:00:00 - - - - - - -
13.07.2018 18:00:00 - - - - - - -
13.07.2018 17:00:00 26,2 20,3 5 3 WNW 1016,0 20
13.07.2018 16:00:00 - - - - - - -
13.07.2018 15:00:00 - - - - - - -
13.07.2018 14:00:00 27,0 20,3 8 4 WNW 1016,3 20
13.07.2018 13:00:00 - - - - - - -
13.07.2018 12:00:00 - - - - - - -
13.07.2018 11:00:00 25,0 19,2 11 6 SW 1016,4 20
13.07.2018 10:00:00 - - - - - - -
13.07.2018 09:00:00 - - - - - - -
13.07.2018 08:00:00 22,6 18,6 8 4 N 1015,9 20
13.07.2018 07:00:00 - - - - - - -
13.07.2018 06:00:00 - - - - - - -
13.07.2018 05:00:00 - - - - - - -
13.07.2018 04:00:00 - - - - - - -
13.07.2018 03:00:00 - - - - - - -
13.07.2018 02:00:00 - - - - - - -
13.07.2018 01:00:00 - - - - - - -
13.07.2018 00:00:00 - - - - - - -
12.07.2018 23:00:00 - - - - - - -
12.07.2018 22:00:00 - - - - - - -
12.07.2018 21:00:00 - - - - - - -
12.07.2018 20:00:00 24,0 19,5 4 2 NW 1015,5 20
12.07.2018 19:00:00 - - - - - - -
12.07.2018 18:00:00 - - - - - - -
12.07.2018 17:00:00 24,8 20,5 5 3 NW 1015,5 20
12.07.2018 16:00:00 - - - - - - -
12.07.2018 15:00:00 - - - - - - -
12.07.2018 14:00:00 26,4 19,5 8 4 W 1015,5 20
12.07.2018 13:00:00 - - - - - - -
12.07.2018 12:00:00 - - - - - - -
12.07.2018 11:00:00 23,0 18,3 8 4 WNW 1015,6 20
12.07.2018 10:00:00 - - - - - - -
12.07.2018 09:00:00 - - - - - - -
12.07.2018 08:00:00 21,6 18,8 2 1 NW 1014,8 20
12.07.2018 07:00:00 - - - - - - -
12.07.2018 06:00:00 - - - - - - -
12.07.2018 05:00:00 - - - - - - -
12.07.2018 04:00:00 - - - - - - -
12.07.2018 03:00:00 - - - - - - -
12.07.2018 02:00:00 - - - - - - -
12.07.2018 01:00:00 - - - - - - -
12.07.2018 00:00:00 - - - - - - -
11.07.2018 23:00:00 - - - - - - -
11.07.2018 22:00:00 - - - - - - -
11.07.2018 21:00:00 - - - - - - -
11.07.2018 20:00:00 23,2 19,4 8 4 NW 1013,6 20
11.07.2018 19:00:00 - - - - - - -
11.07.2018 18:00:00 - - - - - - -
11.07.2018 17:00:00 24,4 19,5 9 5 WNW 1013,4 18
11.07.2018 16:00:00 - - - - - - -
11.07.2018 15:00:00 - - - - - - -
11.07.2018 14:00:00 25,0 20,5 9 5 WSW 1013,4 18
11.07.2018 13:00:00 - - - - - - -
11.07.2018 12:00:00 - - - - - - -
11.07.2018 11:00:00 22,4 19,0 8 4 W 1013,8 10
11.07.2018 10:00:00 - - - - - - -
11.07.2018 09:00:00 - - - - - - -
11.07.2018 08:00:00 20,6 18,4 2 1 WNW 1014,0 18
11.07.2018 07:00:00 - - - - - - -
11.07.2018 06:00:00 - - - - - - -
11.07.2018 05:00:00 - - - - - - -
11.07.2018 04:00:00 - - - - - - -
11.07.2018 03:00:00 - - - - - - -
11.07.2018 02:00:00 - - - - - - -
11.07.2018 01:00:00 - - - - - - -
11.07.2018 00:00:00 - - - - - - -
10.07.2018 23:00:00 - - - - - - -
10.07.2018 22:00:00 - - - - - - -
10.07.2018 21:00:00 - - - - - - -
10.07.2018 20:00:00 22,6 20,0 8 4 WNW 1012,9 20
10.07.2018 19:00:00 - - - - - - -
10.07.2018 18:00:00 - - - - - - -
10.07.2018 17:00:00 25,0 19,8 8 4 W 1013,0 20
10.07.2018 16:00:00 - - - - - - -
10.07.2018 15:00:00 - - - - - - -
10.07.2018 14:00:00 26,8 20,9 15 8 SW 1012,8 20
10.07.2018 13:00:00 - - - - - - -
10.07.2018 12:00:00 - - - - - - -
10.07.2018 11:00:00 25,0 20,3 15 8 S 1013,3 20
10.07.2018 10:00:00 - - - - - - -
10.07.2018 09:00:00 - - - - - - -
10.07.2018 08:00:00 21,2 18,6 11 6 SSE 1014,0 20
10.07.2018 07:00:00 - - - - - - -
10.07.2018 06:00:00 - - - - - - -
10.07.2018 05:00:00 - - - - - - -
10.07.2018 04:00:00 - - - - - - -
10.07.2018 03:00:00 - - - - - - -
10.07.2018 02:00:00 - - - - - - -
10.07.2018 01:00:00 - - - - - - -
10.07.2018 00:00:00 - - - - - - -
09.07.2018 23:00:00 - - - - - - -
09.07.2018 22:00:00 - - - - - - -
09.07.2018 21:00:00 - - - - - - -

tt = temperature
td = dewpoint
ff = wind speed
dd = wind direction
ppp = reduced air pressure
vv = visibility

Next stations